Home   Weather   Ankara   Past weeks

Flag for Turkey Past Weather in Ankara, Turkey — Yesterday and Last 2 Weeks

39 °F

Passing clouds.

Feels Like: 39 °F
Forecast: 32 / 63 °F
Wind: 2 mph from North

Location: Ankara / Esenboga

Current Time: Oct 25, 2016 at 7:59:40 AM

Latest Report: Oct 25, 2016 at 7:20 AM

Visibility: N/A

Pressure: 30.27 "Hg (27.19 "Hg at 871m altitude)

Humidity: 81%

Dew Point: 34 °F

Location of AnkaraLocation

Past Weather in Ankara — Graph


Ankara Temperature Yesterday

Maximum temperature yesterday: 63 °F (at 3:20 PM)
Minimum temperature yesterday: 43 °F (at 11:20 PM)
Average temperature yesterday: 52 °F

High & Low Weather Summary for the Past Weeks

High81 °F (Oct 12, 12:50 PM)87% (Oct 10, 6:20 AM)30.27 "Hg (Oct 10, 6:20 AM)
Low30 °F (Oct 20, 6:20 AM)18% (Oct 16, 4:50 PM)29.89 "Hg (Oct 12, 3:50 PM)
Average52 °F56%30.13 "Hg
* Reported Oct 10 6:20 AM — Oct 25 6:20 AM, Ankara, Weather by CustomWeather, © 2016

Note: Actual official high and low records may vary slightly from our data, if they occured in-between our weather recording intervals... More about our weather records


Ankara Weather History for the Previous 24 Hours

Scroll right to see more
Time TempWeatherWind HumidityBarometerVisibility
6:20 AM
Tue, Oct 25
37 °FPassing clouds.2 mph87%30.27 "HgN/A
5:50 AM39 °FPassing clouds.2 mph81%30.27 "HgN/A
5:20 AM37 °FPassing clouds.3 mph87%30.27 "HgN/A
4:50 AM39 °FPassing clouds.2 mph81%30.27 "HgN/A
4:20 AM39 °FPassing clouds.2 mph87%30.27 "HgN/A
3:50 AM39 °FPassing clouds.No wind81%30.27 "HgN/A
3:20 AM39 °FPassing clouds.2 mph75%30.27 "HgN/A
2:50 AM41 °FPassing clouds.3 mph76%30.27 "HgN/A
2:20 AM43 °FPassing clouds.2 mph71%30.27 "HgN/A
1:50 AM39 °FPassing clouds.1 mph81%30.27 "HgN/A
1:20 AM39 °FPassing clouds.6 mph81%30.27 "HgN/A
12:50 AM39 °FPassing clouds.5 mph81%30.27 "HgN/A
12:20 AM43 °FPassing clouds.2 mph71%30.27 "HgN/A
11:50 PM
Mon, Oct 24
43 °FPassing clouds.7 mph71%30.27 "HgN/A
11:20 PM43 °FPassing clouds.7 mph76%30.27 "HgN/A
10:50 PM45 °FPassing clouds.6 mph71%30.27 "HgN/A
10:20 PM48 °FPassing clouds.9 mph66%30.27 "HgN/A
9:50 PM46 °FPassing clouds.8 mph71%30.27 "HgN/A
9:20 PM50 °FPassing clouds.5 mph62%30.24 "HgN/A
8:50 PM50 °FPassing clouds.7 mph62%30.24 "HgN/A
8:20 PM52 °FPassing clouds.7 mph58%30.24 "HgN/A
7:50 PM54 °FPassing clouds.7 mph54%30.24 "HgN/A
7:20 PM55 °FPassing clouds.13 mph51%30.24 "HgN/A
6:50 PM55 °FPassing clouds.14 mph51%30.21 "HgN/A
6:20 PM57 °FPassing clouds.14 mph48%30.21 "HgN/A
5:50 PM59 °FBroken clouds.10 mph48%30.21 "HgN/A
5:20 PM59 °FPartly sunny.10 mph51%30.18 "HgN/A
4:50 PM61 °FPartly sunny.14 mph48%30.18 "HgN/A
4:20 PM61 °FPartly sunny.10 mph48%30.18 "HgN/A
3:50 PM63 °FPartly sunny.8 mph42%30.18 "HgN/A
3:20 PM63 °FPartly sunny.9 mph42%30.18 "HgN/A
2:50 PM61 °FPartly sunny.12 mph52%30.18 "HgN/A
2:20 PM61 °FPartly sunny.10 mph52%30.18 "HgN/A
1:50 PM59 °FPartly sunny.13 mph55%30.18 "HgN/A
1:20 PM61 °FPartly sunny.13 mph52%30.18 "HgN/A
12:50 PM61 °FBroken clouds.12 mph52%30.18 "HgN/A
12:20 PM61 °FScattered clouds.13 mph52%30.18 "HgN/A
11:50 AM61 °FScattered clouds.7 mph48%30.21 "HgN/A
11:20 AM61 °FScattered clouds.8 mph48%30.21 "HgN/A
10:50 AM61 °FScattered clouds.10 mph52%30.21 "HgN/A
10:20 AM57 °FScattered clouds.9 mph59%30.21 "HgN/A
9:50 AM55 °FScattered clouds.5 mph63%30.21 "HgN/A
9:20 AM54 °FScattered clouds.3 mph63%30.21 "HgN/A
8:50 AM52 °FScattered clouds.1 mph67%30.21 "HgN/A
8:20 AM50 °FScattered clouds.2 mph71%30.21 "HgN/A
7:50 AM48 °FScattered clouds.5 mph71%30.18 "HgN/A
7:20 AM48 °FScattered clouds.2 mph71%30.18 "HgN/A
Weather by CustomWeather, © 2016

See weather overviewHow to use our weather pages